Regional Weather Roundup
Issued by NWS

Home | Current Version | Previous Version | Text Only | Print | Product List | Glossary On
Versions: 1 2 3 4 5 6 7 8 9 10 11 12 13 14 15 16 17 18 19 20 21 22 23 24 25 26 27 28 29 30 31 32 33 34 35 36 37 38 39 40 41 42 43 44 45 46 47 48 49 50
000
ASUS43 KLSX 290907
RWRMO

WEATHER SUMMARY FOR MISSOURI
NATIONAL WEATHER SERVICE SPRINGFIELD MO
400 AM CDT SUN MAR 29 2015

NOTE: "FAIR" INDICATES FEW OR NO CLOUDS BELOW 12,000 FEET WITH NO
       SIGNIFICANT WEATHER AND/OR OBSTRUCTIONS TO VISIBILITY.
       CURRENT SKY AND/OR WEATHER CONDITIONS ARE NOT AVAILABLE FOR
       CHILLICOTHE AND FARMINGTON.

MOZ001>031-035>038-043-044-053-054-291000-
...NORTHERN AND WESTERN MISSOURI...

CITY           SKY/WX    TMP DP  RH WIND       PRES   REMARKS
KANSAS CTY INT MOCLDY    39  33  79 S17       29.96F WCI  30
KANSAS C DTWN  CLEAR     40  32  73 S10       29.99F
LEE`S SUMMIT   CLEAR     37  31  78 S8G18     29.99F
ST JOSEPH      PTCLDY    40  33  76 S15       29.95F
CHILLICOTHE      N/A     38  31  76 S13       30.01F WCI  30
KIRKSVILLE     CLEAR     32  28  85 S13       30.03F WCI  22

$$
MOZ066>068-077>081-088>096-101>105-291000-
...SOUTHWEST MISSOURI...

CITY           SKY/WX    TMP DP  RH WIND       PRES   REMARKS
SPRINGFIELD    CLEAR     35  29  78 SE21G30   30.06F WCI  24
JOPLIN         CLEAR     41  33  73 SE15      30.01F

$$
MOZ032>034-039>042-045>050-055>058-069>072-291000-
...CENTRAL MISSOURI...

CITY           SKY/WX    TMP DP  RH WIND       PRES   REMARKS
COLUMBIA       CLEAR     35  28  75 S13       30.10F WCI  26
JEFFERSON CITY CLEAR     35  27  72 SE8       30.13F WCI  29
ROLLA          CLEAR     34  24  67 S16       30.10F WCI  24
SEDALIA        CLEAR     37  30  75 S15       30.04F WCI  28
WHITEMAN AFB   PTCLDY    36  31  81 S13       30.02F WCI  28
WARRENSBURG    CLEAR     36  32  87 SE13      30.01F WCI  27
OSAGE BEACH    CLEAR     36  27  69 SE14      30.09F WCI  27

$$
MOZ051-052-059>065-291000-
...EAST CENTRAL MISSOURI...

CITY           SKY/WX    TMP DP  RH WIND       PRES   REMARKS
ST LOUIS INTL  CLEAR     36  20  52 SE12      30.18F WCI  28
SPIRIT OF STL  CLEAR     32  22  66 CALM      30.18F
ST CHARLES     CLEAR     33  22  63 SE9       30.18F WCI  25

$$
MOZ072>076-082>087-097>100-106>115-291000-
...SOUTH CENTRAL AND SOUTHEAST MISSOURI...

CITY           SKY/WX    TMP DP  RH WIND       PRES   REMARKS
CAPE GIRARDEAU CLEAR     32  24  72 SE8       30.26F WCI  25
FARMINGTON     CLEAR     30  27  86 S7        30.22F WCI  23
POPLAR BLUFF   CLEAR     31  28  89 CALM      30.24F FOG
WEST PLAINS    CLEAR     31  27  85 SE5       30.18F WCI  26

$$



USA.gov is the U.S. government's official web portal to all federal, state and local government web resources and services.